User: anonymous   Login
Location: Lourdes
(43.1000°N, 0.0500°W)
Time: 04:33:59
(UTC+00:00)
Language:

deb Explorer XIX - Orbit

View from above orbital plane
View from above orbital plane
View from above satellite
View from above satellite

Ground track
Ground track

The orbit data is extracted from the following two-line orbital elements,

1 00732U 63053H   21165.45850315  .00001085  00000-0  42554-3 0  9992
2 00732  78.5807 303.4847 0532218 282.9583  71.2657 13.72440487721723
Epoch (UTC): 14 June 2021 11:00:14
Eccentricity: 0.0532218
inclination: 78.5807°
perigee height: 598 km
apogee height: 1383 km
right ascension of ascending node: 303.4847°
argument of perigee: 282.9583°
revolutions per day: 13.72440487
mean anomaly at epoch: 71.2657°
orbit number at epoch: 72172

The dashed part of the orbit path shows where the satellite is in the earth's shadow,  

DLR